contact:dominique.lefevre@mio.osupytheas.fr, maurice.libes@osupytheas.fr, didier.mallarino@osupytheas.fr
Project:EMSO http://www.emso-fr.org/EMSO-France
Depth: 2436.0 m
Title:EMSO Ligure Ouest : Data MII capteur AQUADOPP
Date,Latitude,Longitude,X_East,Y_North,Z_Up,Amplitude_X,Amplitude_Y,Amplitude_Z,Batterie,SoundSpeed,Heading,Pitch,Roll,Pressure,TIS,Speed,Direction
, degrees North, degrees East, m.s-1, m.s-1,m.s-1, 1, 1, 1, Volt, m.s-1, degree, degree, degree, dbar, degree_C, m.s-1, degree
2022-06-14T00:04:03,42.805,6.029,-0.031,0.017,0.0,106.0,105.0,103.0,13.4,1505.2,323.5,-0.8,1.8,2470.821,13.28,0.035,298.7
2022-06-14T00:07:03,42.805,6.029,-0.009,0.01,0.005,105.0,104.0,103.0,13.4,1505.2,332.9,-0.8,1.8,2470.817,13.28,0.013,318.0
2022-06-14T00:10:03,42.805,6.029,-0.043,0.009,0.003,106.0,105.0,103.0,13.4,1505.2,327.5,-0.8,1.8,2470.815,13.29,0.043,281.8
2022-06-14T00:13:03,42.805,6.029,-0.042,0.043,-0.005,105.0,105.0,102.0,13.3,1505.2,321.8,-0.8,1.8,2470.795,13.29,0.06,315.7
2022-06-14T00:16:03,42.805,6.029,-0.022,0.007,-0.008,105.0,104.0,103.0,13.4,1505.2,328.0,-0.7,1.8,2470.791,13.29,0.023,287.6
2022-06-14T00:19:03,42.805,6.029,-0.027,0.006,-0.016,105.0,105.0,102.0,13.4,1505.2,331.1,-0.7,1.8,2470.816,13.29,0.027,282.5
2022-06-14T00:22:03,42.805,6.029,-0.007,0.023,-0.018,105.0,105.0,102.0,13.4,1505.2,331.8,-0.8,1.8,2470.777,13.29,0.024,343.1
2022-06-14T00:25:03,42.805,6.029,-0.039,-0.009,-0.007,105.0,105.0,105.0,13.3,1505.2,332.5,-0.8,1.8,2470.784,13.29,0.04,257.0
2022-06-14T00:28:03,42.805,6.029,-0.03,0.018,-0.017,106.0,105.0,102.0,13.4,1505.2,333.8,-0.7,1.8,2470.76,13.29,0.034,301.0
2022-06-14T00:31:03,42.805,6.029,-0.023,0.021,-0.026,106.0,105.0,106.0,13.3,1505.2,328.2,-0.8,1.8,2470.775,13.29,0.031,312.4
2022-06-14T00:34:03,42.805,6.029,-0.009,0.004,0.006,106.0,105.0,102.0,13.4,1505.2,332.3,-0.8,1.8,2470.796,13.29,0.009,294.0
2022-06-14T00:37:03,42.805,6.029,-0.032,0.017,-0.007,106.0,105.0,101.0,13.3,1505.2,326.1,-0.7,1.9,2470.799,13.29,0.036,298.0
2022-06-14T00:40:03,42.805,6.029,-0.032,0.013,-0.018,105.0,104.0,102.0,13.3,1505.2,324.7,-0.8,1.8,2470.749,13.29,0.034,292.1
2022-06-14T00:43:03,42.805,6.029,-0.023,0.019,-0.006,105.0,105.0,102.0,13.4,1505.2,329.8,-0.8,1.8,2470.797,13.29,0.029,309.6
2022-06-14T00:46:03,42.805,6.029,-0.029,0.013,-0.004,104.0,103.0,102.0,13.3,1505.2,330.1,-0.7,1.8,2470.731,13.29,0.031,294.1
2022-06-14T00:49:03,42.805,6.029,-0.026,0.002,0.004,104.0,106.0,102.0,13.4,1505.2,326.6,-0.8,1.8,2470.79,13.29,0.026,274.4
2022-06-14T00:52:03,42.805,6.029,-0.038,0.02,-0.016,105.0,104.0,102.0,13.4,1505.2,332.7,-0.8,1.8,2470.798,13.29,0.042,297.8
2022-06-14T00:55:03,42.805,6.029,-0.028,0.0,-0.007,105.0,104.0,102.0,13.4,1505.2,331.8,-0.7,1.8,2470.772,13.29,0.028,270.0
2022-06-14T00:58:03,42.805,6.029,-0.034,0.019,0.007,104.0,106.0,102.0,13.4,1505.2,332.0,-0.8,1.8,2470.776,13.29,0.038,299.2
2022-06-14T01:04:03,42.805,6.029,-0.028,0.009,0.013,106.0,105.0,103.0,13.4,1505.2,324.7,-0.7,1.8,2470.791,13.28,0.029,287.8
2022-06-14T01:07:03,42.805,6.029,-0.022,0.014,-0.052,105.0,105.0,102.0,13.4,1505.2,320.9,-0.7,1.8,2470.78,13.28,0.026,302.5
2022-06-14T01:10:03,42.805,6.029,0.009,0.032,0.005,105.0,104.0,103.0,13.4,1505.2,330.1,-0.8,1.8,2470.772,13.28,0.033,15.7
2022-06-14T01:13:03,42.805,6.029,-0.026,0.001,-0.007,106.0,103.0,103.0,13.4,1505.2,328.9,-0.7,1.8,2470.748,13.29,0.026,272.2
2022-06-14T01:16:03,42.805,6.029,-0.03,0.015,-0.021,106.0,105.0,102.0,13.3,1505.2,328.0,-0.8,1.8,2470.75,13.29,0.033,296.6
2022-06-14T01:19:03,42.805,6.029,-0.015,-0.003,-0.023,106.0,105.0,103.0,13.4,1505.2,327.8,-0.8,1.8,2470.801,13.29,0.015,258.7
2022-06-14T01:22:03,42.805,6.029,-0.012,0.023,0.002,104.0,104.0,103.0,13.4,1505.2,323.6,-0.7,1.8,2470.754,13.29,0.025,332.4
2022-06-14T01:25:03,42.805,6.029,-0.033,0.015,-0.026,105.0,105.0,102.0,13.3,1505.2,324.1,-0.8,1.8,2470.768,13.29,0.036,294.4
2022-06-14T01:28:03,42.805,6.029,-0.035,0.011,-0.02,105.0,105.0,102.0,13.3,1505.2,323.0,-0.8,1.8,2470.788,13.29,0.036,287.4
2022-06-14T01:31:03,42.805,6.029,-0.012,0.013,-0.009,106.0,105.0,102.0,13.4,1505.2,320.5,-0.8,1.8,2470.753,13.29,0.017,317.3
2022-06-14T01:34:03,42.805,6.029,-0.013,0.025,-0.02,106.0,107.0,103.0,13.3,1505.2,332.1,-0.8,1.8,2470.737,13.29,0.028,332.5
2022-06-14T01:37:03,42.805,6.029,-0.029,-0.017,-0.023,105.0,106.0,103.0,13.4,1505.2,326.0,-0.7,1.8,2470.746,13.29,0.033,239.6
2022-06-14T01:40:03,42.805,6.029,-0.021,0.011,-0.018,107.0,104.0,102.0,13.3,1505.2,333.6,-0.7,1.8,2470.725,13.29,0.023,297.6
2022-06-14T01:43:03,42.805,6.029,-0.021,0.009,-0.027,104.0,104.0,102.0,13.4,1505.2,324.7,-0.7,1.8,2470.744,13.29,0.022,293.2
2022-06-14T01:46:03,42.805,6.029,-0.018,0.024,-0.04,106.0,104.0,102.0,13.4,1505.2,328.6,-0.8,1.8,2470.722,13.29,0.03,323.1
2022-06-14T01:49:03,42.805,6.029,-0.025,-0.004,0.027,104.0,106.0,102.0,13.4,1505.2,332.1,-0.7,1.8,2470.724,13.29,0.025,260.9
2022-06-14T01:52:03,42.805,6.029,-0.042,0.02,-0.043,106.0,106.0,102.0,13.3,1505.2,329.8,-0.7,1.8,2470.721,13.29,0.046,295.5
2022-06-14T01:55:03,42.805,6.029,-0.031,0.001,-0.019,104.0,105.0,104.0,13.4,1505.2,323.3,-0.7,1.8,2470.779,13.29,0.031,271.8
2022-06-14T01:58:03,42.805,6.029,-0.021,0.014,-0.023,104.0,106.0,102.0,13.3,1505.2,322.9,-0.8,1.8,2470.798,13.29,0.025,303.7
2022-06-14T02:04:03,42.805,6.029,-0.022,0.014,-0.021,104.0,104.0,102.0,13.3,1505.2,328.3,-0.8,1.8,2470.773,13.28,0.026,302.5
2022-06-14T02:07:03,42.805,6.029,-0.041,0.017,-0.045,103.0,106.0,102.0,13.4,1505.2,320.0,-0.8,1.8,2470.804,13.28,0.044,292.5
2022-06-14T02:10:03,42.805,6.029,-0.038,0.014,-0.002,105.0,104.0,101.0,13.4,1505.2,330.9,-0.8,1.8,2470.789,13.29,0.04,290.2
2022-06-14T02:13:03,42.805,6.029,-0.013,0.013,-0.024,104.0,104.0,100.0,13.3,1505.2,329.0,-0.7,1.8,2470.782,13.29,0.018,315.0
2022-06-14T02:16:03,42.805,6.029,-0.012,0.03,-0.02,106.0,104.0,102.0,13.3,1505.2,322.4,-0.8,1.8,2470.78,13.29,0.032,338.2
2022-06-14T02:19:03,42.805,6.029,0.001,0.011,-0.024,103.0,103.0,102.0,13.4,1505.2,326.1,-0.8,1.8,2470.761,13.29,0.011,5.2
2022-06-14T02:22:03,42.805,6.029,-0.019,0.0,-0.033,105.0,105.0,102.0,13.3,1505.2,324.5,-0.7,1.8,2470.779,13.29,0.019,270.0
2022-06-14T02:25:03,42.805,6.029,-0.029,0.011,-0.015,106.0,105.0,103.0,13.4,1505.2,326.1,-0.7,1.8,2470.8,13.29,0.031,290.8
2022-06-14T02:28:03,42.805,6.029,-0.009,0.03,-0.006,105.0,105.0,102.0,13.3,1505.2,325.0,-0.8,1.8,2470.759,13.29,0.031,343.3
2022-06-14T02:31:03,42.805,6.029,-0.001,0.0,-0.002,105.0,105.0,101.0,13.3,1505.2,328.3,-0.8,1.8,2470.772,13.29,0.001,270.0
2022-06-14T02:34:03,42.805,6.029,-0.004,0.004,-0.012,106.0,105.0,101.0,13.4,1505.2,327.7,-0.7,1.8,2470.767,13.29,0.005,315.0
2022-06-14T02:37:03,42.805,6.029,-0.017,0.013,-0.033,106.0,105.0,102.0,13.3,1505.2,322.5,-0.7,1.8,2470.789,13.29,0.021,307.4
2022-06-14T02:40:03,42.805,6.029,-0.023,0.025,0.018,104.0,106.0,103.0,13.4,1505.2,326.7,-0.8,1.8,2470.742,13.29,0.033,317.4
2022-06-14T02:43:03,42.805,6.029,-0.011,0.014,-0.015,106.0,107.0,101.0,13.3,1505.2,324.7,-0.8,1.8,2470.758,13.29,0.017,321.8
2022-06-14T02:46:03,42.805,6.029,-0.021,0.004,-0.016,107.0,104.0,101.0,13.3,1505.2,328.3,-0.8,1.8,2470.764,13.29,0.021,280.8
2022-06-14T02:49:03,42.805,6.029,-0.028,0.023,-0.003,106.0,105.0,103.0,13.4,1505.2,324.1,-0.7,1.8,2470.782,13.29,0.036,309.4
2022-06-14T02:52:03,42.805,6.029,-0.018,0.033,0.013,104.0,103.0,102.0,13.3,1505.2,323.8,-0.8,1.8,2470.806,13.29,0.037,331.4
2022-06-14T02:55:03,42.805,6.029,-0.037,0.017,-0.025,104.0,105.0,102.0,13.4,1505.2,328.8,-0.7,1.8,2470.806,13.29,0.04,294.7
2022-06-14T02:58:03,42.805,6.029,-0.007,0.0,-0.027,105.0,105.0,102.0,13.3,1505.2,325.2,-0.7,1.8,2470.762,13.29,0.007,270.0
2022-06-14T03:04:03,42.805,6.029,-0.029,0.002,0.015,104.0,105.0,102.0,13.4,1505.2,330.0,-0.8,1.8,2470.853,13.28,0.029,273.9
2022-06-14T03:07:03,42.805,6.029,-0.015,0.028,-0.01,105.0,104.0,101.0,13.4,1505.2,332.5,-0.8,1.8,2470.816,13.28,0.031,331.8
2022-06-14T03:10:03,42.805,6.029,-0.029,0.031,-0.018,106.0,102.0,101.0,13.3,1505.2,323.7,-0.7,1.8,2470.828,13.29,0.042,316.9
2022-06-14T03:13:03,42.805,6.029,-0.018,0.005,-0.009,105.0,104.0,102.0,13.4,1505.2,326.5,-0.7,1.8,2470.828,13.29,0.018,285.5
2022-06-14T03:16:03,42.805,6.029,0.01,0.002,-0.008,104.0,104.0,102.0,13.4,1505.2,329.8,-0.7,1.8,2470.837,13.29,0.01,78.7
2022-06-14T03:19:03,42.805,6.029,-0.025,-0.007,-0.013,104.0,103.0,102.0,13.4,1505.2,331.1,-0.8,1.8,2470.811,13.29,0.025,254.4
2022-06-14T03:22:03,42.805,6.029,-0.013,0.002,-0.019,106.0,102.0,102.0,13.3,1505.2,326.5,-0.8,1.9,2470.836,13.29,0.013,278.7
2022-06-14T03:25:03,42.805,6.029,-0.008,0.023,-0.042,106.0,104.0,102.0,13.4,1505.2,329.2,-0.7,1.8,2470.803,13.29,0.024,340.8
2022-06-14T03:28:03,42.805,6.029,-0.008,0.022,-0.012,109.0,104.0,102.0,13.4,1505.2,327.0,-0.8,1.8,2470.861,13.29,0.023,340.0
2022-06-14T03:31:03,42.805,6.029,-0.028,0.01,-0.009,106.0,104.0,102.0,13.4,1505.2,322.0,-0.8,1.8,2470.828,13.29,0.029,289.6
2022-06-14T03:34:03,42.805,6.029,-0.027,0.019,-0.038,106.0,104.0,101.0,13.3,1505.2,324.5,-0.7,1.9,2470.817,13.29,0.033,305.1
2022-06-14T03:37:03,42.805,6.029,-0.025,0.018,0.002,104.0,104.0,101.0,13.4,1505.2,323.7,-0.8,1.8,2470.844,13.29,0.03,305.8
2022-06-14T03:40:03,42.805,6.029,-0.022,-0.002,-0.029,105.0,105.0,101.0,13.4,1505.2,323.3,-0.8,1.8,2470.835,13.29,0.022,264.8
2022-06-14T03:43:03,42.805,6.029,-0.015,-0.008,-0.003,106.0,103.0,102.0,13.4,1505.2,328.1,-0.8,1.8,2470.819,13.29,0.017,241.9
2022-06-14T03:46:03,42.805,6.029,-0.026,0.012,0.004,106.0,103.0,102.0,13.4,1505.2,323.1,-0.8,1.8,2470.829,13.29,0.028,294.8
2022-06-14T03:49:03,42.805,6.029,-0.012,0.011,-0.041,104.0,103.0,102.0,13.4,1505.2,328.0,-0.8,1.8,2470.868,13.29,0.016,312.5
2022-06-14T03:52:03,42.805,6.029,-0.038,0.004,-0.013,104.0,104.0,101.0,13.4,1505.2,329.5,-0.8,1.8,2470.841,13.29,0.038,276.0
2022-06-14T03:55:03,42.805,6.029,-0.032,0.022,-0.006,104.0,103.0,102.0,13.4,1505.2,322.8,-0.7,1.8,2470.863,13.29,0.038,304.5
2022-06-14T03:58:03,42.805,6.029,-0.023,0.0,-0.011,105.0,103.0,100.0,13.3,1505.2,324.2,-0.8,1.8,2470.847,13.29,0.023,270.0
2022-06-14T04:04:03,42.805,6.029,-0.007,0.016,-0.015,104.0,103.0,101.0,13.4,1505.2,321.8,-0.8,1.8,2470.896,13.28,0.017,336.4
2022-06-14T04:07:03,42.805,6.029,-0.017,0.007,-0.013,105.0,103.0,101.0,13.4,1505.2,327.2,-0.7,1.8,2470.892,13.29,0.018,292.4
2022-06-14T04:10:03,42.805,6.029,-0.018,-0.003,-0.033,105.0,105.0,101.0,13.4,1505.2,324.5,-0.8,1.8,2470.838,13.29,0.018,260.5
2022-06-14T04:13:03,42.805,6.029,-0.015,0.016,-0.01,104.0,103.0,101.0,13.4,1505.2,330.8,-0.7,1.8,2470.885,13.29,0.021,316.9
2022-06-14T04:16:03,42.805,6.029,-0.019,0.012,0.013,105.0,104.0,102.0,13.3,1505.2,330.3,-0.7,1.8,2470.845,13.29,0.022,302.3
2022-06-14T04:19:03,42.805,6.029,-0.03,0.016,-0.004,104.0,104.0,101.0,13.4,1505.2,331.4,-0.7,1.8,2470.898,13.29,0.034,298.1
2022-06-14T04:22:03,42.805,6.029,-0.011,0.008,-0.043,104.0,105.0,102.0,13.3,1505.2,331.6,-0.7,1.8,2470.877,13.29,0.013,306.0
2022-06-14T04:25:03,42.805,6.029,-0.024,0.0,-0.022,103.0,105.0,103.0,13.4,1505.2,325.2,-0.8,1.8,2470.885,13.29,0.024,270.0
2022-06-14T04:28:03,42.805,6.029,-0.013,0.011,0.008,104.0,105.0,102.0,13.4,1505.2,323.7,-0.7,1.8,2470.877,13.29,0.017,310.2
2022-06-14T04:31:03,42.805,6.029,-0.018,0.024,-0.017,105.0,105.0,102.0,13.4,1505.2,326.0,-0.7,1.8,2470.901,13.29,0.03,323.1
2022-06-14T04:34:03,42.805,6.029,-0.018,0.009,-0.007,105.0,103.0,102.0,13.3,1505.2,326.1,-0.8,1.8,2470.874,13.29,0.02,296.6
2022-06-14T04:37:03,42.805,6.029,0.004,0.019,0.005,104.0,105.0,102.0,13.3,1505.2,329.3,-0.8,1.8,2470.883,13.29,0.019,11.9
2022-06-14T04:40:03,42.805,6.029,-0.045,0.019,0.009,104.0,104.0,100.0,13.4,1505.2,329.6,-0.8,1.8,2470.866,13.29,0.048,292.9
2022-06-14T04:43:03,42.805,6.029,-0.024,0.02,-0.034,103.0,103.0,102.0,13.3,1505.2,324.1,-0.8,1.8,2470.89,13.29,0.031,309.8
2022-06-14T04:46:03,42.805,6.029,-0.009,0.016,0.002,104.0,104.0,102.0,13.4,1505.2,323.3,-0.7,1.8,2470.897,13.29,0.018,330.6
2022-06-14T04:49:03,42.805,6.029,-0.011,0.015,-0.012,106.0,102.0,102.0,13.4,1505.2,331.0,-0.8,1.8,2470.896,13.29,0.018,323.7
2022-06-14T04:52:03,42.805,6.029,0.002,0.0,-0.001,105.0,103.0,100.0,13.4,1505.2,320.9,-0.8,1.8,2470.911,13.29,0.002,90.0
2022-06-14T04:55:03,42.805,6.029,-0.016,0.0,-0.02,103.0,104.0,102.0,13.4,1505.2,328.4,-0.8,1.8,2470.895,13.29,0.016,270.0
2022-06-14T04:58:03,42.805,6.029,-0.026,-0.006,-0.007,105.0,104.0,101.0,13.4,1505.2,331.5,-0.8,1.8,2470.871,13.29,0.026,257.0
2022-06-14T05:04:03,42.805,6.029,-0.029,0.001,-0.027,104.0,103.0,101.0,13.4,1505.2,321.8,-0.8,1.8,2470.93,13.28,0.029,272.0
2022-06-14T05:07:03,42.805,6.029,-0.002,0.028,-0.01,104.0,103.0,101.0,13.4,1505.2,328.9,-0.7,1.8,2470.951,13.28,0.028,355.9
2022-06-14T05:10:03,42.805,6.029,-0.02,-0.006,-0.037,104.0,105.0,101.0,13.4,1505.2,333.2,-0.8,1.8,2470.937,13.29,0.02,253.3
2022-06-14T05:13:03,42.805,6.029,-0.018,0.014,-0.017,104.0,104.0,102.0,13.4,1505.2,327.9,-0.8,1.9,2470.952,13.29,0.022,307.9
2022-06-14T05:16:03,42.805,6.029,-0.016,0.001,-0.008,105.0,105.0,103.0,13.3,1505.2,323.5,-0.8,1.8,2470.919,13.29,0.016,273.6
2022-06-14T05:19:03,42.805,6.029,-0.019,0.027,-0.004,104.0,104.0,103.0,13.4,1505.2,329.7,-0.7,1.8,2470.871,13.29,0.033,324.9
2022-06-14T05:22:03,42.805,6.029,-0.007,0.005,0.0,105.0,103.0,102.0,13.4,1505.2,322.3,-0.8,1.8,2470.939,13.29,0.008,305.5
2022-06-14T05:25:03,42.805,6.029,-0.006,-0.002,-0.02,105.0,104.0,102.0,13.4,1505.2,322.8,-0.8,1.8,2470.891,13.29,0.006,251.6
2022-06-14T05:28:03,42.805,6.029,-0.019,-0.002,-0.033,104.0,106.0,100.0,13.3,1505.2,329.8,-0.7,1.8,2470.936,13.29,0.019,264.0
2022-06-14T05:31:03,42.805,6.029,-0.019,0.007,-0.029,105.0,104.0,101.0,13.4,1505.2,323.0,-0.7,1.8,2470.895,13.29,0.02,290.2
2022-06-14T05:34:03,42.805,6.029,-0.012,0.0,-0.03,105.0,104.0,103.0,13.4,1505.2,329.3,-0.8,1.8,2470.895,13.29,0.012,270.0
2022-06-14T05:37:03,42.805,6.029,-0.012,-0.001,-0.028,106.0,102.0,101.0,13.4,1505.2,329.4,-0.8,1.8,2470.957,13.29,0.012,265.2
2022-06-14T05:40:03,42.805,6.029,-0.004,-0.007,-0.004,104.0,103.0,101.0,13.3,1505.2,329.7,-0.7,1.8,2470.945,13.29,0.008,209.7
2022-06-14T05:43:03,42.805,6.029,-0.002,-0.007,-0.029,103.0,104.0,102.0,13.4,1505.2,321.2,-0.7,1.8,2470.913,13.29,0.007,195.9
2022-06-14T05:46:03,42.805,6.029,-0.011,0.003,-0.065,103.0,103.0,101.0,13.3,1505.2,332.1,-0.8,1.8,2470.93,13.29,0.011,285.3
2022-06-14T05:49:03,42.805,6.029,0.0,0.007,-0.021,105.0,103.0,101.0,13.3,1505.2,327.8,-0.8,1.8,2470.934,13.29,0.007,0.0
2022-06-14T05:52:03,42.805,6.029,-0.015,0.03,-0.017,104.0,103.0,101.0,13.3,1505.2,325.3,-0.8,1.8,2470.904,13.29,0.033,333.4
2022-06-14T05:55:03,42.805,6.029,-0.012,0.001,-0.011,105.0,102.0,102.0,13.4,1505.2,320.9,-0.8,1.8,2470.937,13.29,0.012,274.8
2022-06-14T05:58:03,42.805,6.029,-0.018,0.007,-0.028,104.0,105.0,101.0,13.4,1505.2,331.6,-0.8,1.8,2470.934,13.29,0.019,291.2
2022-06-14T07:04:02,42.805,6.029,-0.002,-0.004,-0.03,103.0,104.0,102.0,13.3,1505.1,332.0,-0.8,1.9,2471.41,13.27,0.004,206.6
2022-06-14T07:07:03,42.805,6.029,-0.021,-0.017,-0.009,105.0,105.0,101.0,13.4,1505.2,328.0,-0.7,1.8,2471.307,13.28,0.027,231.0
2022-06-14T07:10:03,42.805,6.029,-0.031,-0.01,0.003,104.0,105.0,101.0,13.4,1505.2,331.6,-0.8,1.8,2471.234,13.28,0.032,252.1
2022-06-14T07:13:03,42.805,6.029,-0.009,0.025,-0.014,104.0,105.0,101.0,13.4,1505.2,327.8,-0.7,1.8,2471.154,13.28,0.026,340.2
2022-06-14T07:16:03,42.805,6.029,0.006,-0.027,-0.045,104.0,104.0,102.0,13.4,1505.2,332.5,-0.7,1.8,2471.064,13.28,0.027,167.5
2022-06-14T07:19:03,42.805,6.029,-0.016,-0.003,0.007,104.0,103.0,102.0,13.4,1505.2,325.1,-0.7,1.8,2471.052,13.29,0.016,259.4
2022-06-14T07:22:03,42.805,6.029,-0.017,0.0,-0.023,104.0,103.0,103.0,13.3,1505.2,323.1,-0.8,1.8,2471.015,13.29,0.017,270.0
2022-06-14T07:25:03,42.805,6.029,0.005,0.014,-0.008,104.0,104.0,102.0,13.4,1505.2,322.9,-0.7,1.8,2470.984,13.29,0.014,19.6
2022-06-14T07:28:03,42.805,6.029,-0.02,-0.01,-0.016,105.0,105.0,103.0,13.4,1505.2,328.2,-0.7,1.8,2470.976,13.29,0.022,243.4
2022-06-14T07:31:03,42.805,6.029,0.001,0.005,-0.001,104.0,104.0,103.0,13.4,1505.2,330.4,-0.8,1.8,2470.929,13.29,0.005,11.3
2022-06-14T07:34:03,42.805,6.029,-0.023,-0.026,-0.041,104.0,103.0,102.0,13.4,1505.2,328.1,-0.7,1.8,2470.932,13.29,0.034,221.5
2022-06-14T07:37:03,42.805,6.029,-0.021,0.02,0.012,105.0,105.0,101.0,13.4,1505.2,320.9,-0.7,1.9,2470.91,13.29,0.028,313.6
2022-06-14T07:40:03,42.805,6.029,-0.003,-0.012,-0.024,104.0,103.0,102.0,13.4,1505.2,328.9,-0.8,1.8,2470.932,13.29,0.012,194.0
2022-06-14T07:43:03,42.805,6.029,-0.03,-0.014,-0.041,105.0,104.0,102.0,13.4,1505.2,326.5,-0.8,1.9,2470.903,13.29,0.033,245.0
2022-06-14T07:46:03,42.805,6.029,-0.014,0.004,-0.012,105.0,103.0,101.0,13.4,1505.2,320.1,-0.8,1.9,2470.87,13.29,0.014,285.9
2022-06-14T07:49:03,42.805,6.029,-0.016,0.007,0.01,105.0,105.0,102.0,13.3,1505.2,327.5,-0.8,1.8,2470.872,13.29,0.017,293.6
2022-06-14T07:52:03,42.805,6.029,-0.017,-0.011,-0.03,105.0,104.0,101.0,13.4,1505.2,323.1,-0.8,1.8,2470.933,13.29,0.02,237.1
2022-06-14T07:55:03,42.805,6.029,-0.003,0.007,-0.009,104.0,104.0,101.0,13.4,1505.2,329.4,-0.8,1.8,2470.872,13.29,0.007,336.8
2022-06-14T07:58:03,42.805,6.029,-0.006,-0.006,-0.015,105.0,104.0,102.0,13.4,1505.2,328.5,-0.8,1.8,2470.882,13.29,0.008,225.0
2022-06-14T08:04:03,42.805,6.029,-0.007,-0.006,-0.035,103.0,103.0,103.0,13.4,1505.2,328.2,-0.7,1.8,2470.938,13.28,0.009,229.4
2022-06-14T08:07:03,42.805,6.029,-0.019,-0.005,-0.033,105.0,104.0,102.0,13.4,1505.2,331.3,-0.7,1.8,2470.882,13.28,0.019,255.3
2022-06-14T08:10:03,42.805,6.029,-0.021,0.006,-0.01,104.0,103.0,102.0,13.4,1505.2,327.5,-0.8,1.8,2470.924,13.29,0.021,285.9
2022-06-14T08:13:03,42.805,6.029,-0.007,-0.003,-0.053,106.0,106.0,101.0,13.4,1505.2,331.1,-0.8,1.8,2470.889,13.29,0.007,246.8
2022-06-14T08:16:03,42.805,6.029,-0.022,0.001,-0.001,105.0,106.0,103.0,13.4,1505.2,320.9,-0.8,1.8,2470.832,13.29,0.022,272.6
2022-06-14T08:19:03,42.805,6.029,-0.013,-0.003,-0.044,103.0,103.0,102.0,13.4,1505.2,331.8,-0.8,1.8,2470.854,13.29,0.013,257.0
2022-06-14T08:22:03,42.805,6.029,-0.027,-0.018,-0.065,104.0,103.0,102.0,13.4,1505.2,322.0,-0.7,1.8,2470.853,13.29,0.032,236.3
2022-06-14T08:25:03,42.805,6.029,-0.014,0.008,-0.025,105.0,103.0,103.0,13.4,1505.2,326.3,-0.8,1.8,2470.833,13.29,0.016,299.7
2022-06-14T08:28:03,42.805,6.029,-0.008,-0.011,-0.007,105.0,103.0,102.0,13.4,1505.2,323.5,-0.7,1.8,2470.86,13.29,0.013,216.0
2022-06-14T08:31:03,42.805,6.029,-0.017,-0.006,-0.011,104.0,104.0,102.0,13.4,1505.2,327.7,-0.7,1.8,2470.814,13.29,0.018,250.6
2022-06-14T08:34:03,42.805,6.029,-0.018,-0.011,-0.033,106.0,104.0,102.0,13.4,1505.2,332.1,-0.8,1.8,2470.832,13.29,0.021,238.6
2022-06-14T08:37:03,42.805,6.029,-0.021,0.002,-0.032,105.0,104.0,103.0,13.3,1505.2,331.5,-0.7,1.8,2470.822,13.29,0.021,275.4
2022-06-14T08:40:03,42.805,6.029,-0.015,-0.017,-0.005,105.0,103.0,102.0,13.4,1505.2,331.8,-0.8,1.8,2470.831,13.29,0.022,221.4
2022-06-14T08:43:03,42.805,6.029,-0.03,0.008,-0.035,103.0,104.0,102.0,13.4,1505.2,327.8,-0.8,1.8,2470.86,13.29,0.031,284.9
2022-06-14T08:46:03,42.805,6.029,-0.042,0.012,-0.003,106.0,103.0,102.0,13.4,1505.2,320.0,-0.8,1.8,2470.841,13.29,0.043,285.9
2022-06-14T08:49:03,42.805,6.029,-0.028,-0.011,-0.027,103.0,104.0,102.0,13.4,1505.2,322.8,-0.8,1.9,2470.824,13.29,0.03,248.6
2022-06-14T08:52:03,42.805,6.029,0.001,0.001,-0.016,104.0,104.0,101.0,13.4,1505.2,325.7,-0.7,1.8,2470.824,13.29,0.001,45.0
2022-06-14T08:55:03,42.805,6.029,0.008,-0.01,-0.053,103.0,105.0,102.0,13.4,1505.2,324.4,-0.8,1.8,2470.811,13.29,0.012,141.3
2022-06-14T08:58:03,42.805,6.029,-0.018,-0.003,-0.016,106.0,104.0,101.0,13.3,1505.2,327.6,-0.8,1.8,2470.869,13.29,0.018,260.5
2022-06-14T09:04:03,42.805,6.029,-0.022,0.016,0.003,104.0,104.0,102.0,13.4,1505.2,324.2,-0.8,1.8,2470.89,13.28,0.027,306.0
2022-06-14T09:07:03,42.805,6.029,-0.009,0.018,0.002,103.0,105.0,103.0,13.4,1505.2,321.2,-0.8,1.8,2470.886,13.28,0.02,333.4
2022-06-14T09:10:03,42.805,6.029,-0.011,0.009,0.006,105.0,104.0,102.0,13.4,1505.2,332.7,-0.8,1.8,2470.846,13.28,0.014,309.3
2022-06-14T09:13:03,42.805,6.029,-0.006,-0.015,-0.041,104.0,104.0,103.0,13.3,1505.2,323.0,-0.8,1.8,2470.834,13.29,0.016,201.8
2022-06-14T09:16:03,42.805,6.029,-0.026,-0.01,-0.038,105.0,103.0,103.0,13.4,1505.2,329.8,-0.8,1.8,2470.875,13.29,0.027,249.0
2022-06-14T09:19:03,42.805,6.029,-0.003,-0.003,-0.01,103.0,104.0,102.0,13.4,1505.2,330.0,-0.7,1.8,2470.789,13.29,0.004,225.0
2022-06-14T09:22:03,42.805,6.029,-0.029,-0.005,0.003,104.0,105.0,103.0,13.4,1505.2,326.0,-0.7,1.8,2470.839,13.29,0.029,260.2
2022-06-14T09:25:03,42.805,6.029,-0.015,-0.03,-0.043,105.0,104.0,101.0,13.4,1505.2,334.0,-0.7,1.8,2470.822,13.29,0.033,206.6
2022-06-14T09:28:03,42.805,6.029,-0.041,0.027,-0.027,105.0,104.0,102.0,13.3,1505.2,328.5,-0.7,1.8,2470.774,13.29,0.049,303.4
2022-06-14T09:31:03,42.805,6.029,-0.019,-0.011,-0.006,106.0,105.0,102.0,13.4,1505.2,325.3,-0.7,1.8,2470.789,13.29,0.021,239.9
2022-06-14T09:34:03,42.805,6.029,-0.011,-0.017,-0.007,105.0,104.0,103.0,13.4,1505.2,325.5,-0.8,1.8,2470.783,13.29,0.02,212.9
2022-06-14T09:37:03,42.805,6.029,-0.02,0.012,-0.017,105.0,103.0,103.0,13.4,1505.2,331.1,-0.8,1.8,2470.802,13.29,0.023,301.0
2022-06-14T09:40:03,42.805,6.029,-0.028,0.007,-0.005,105.0,104.0,103.0,13.4,1505.2,333.2,-0.7,1.8,2470.795,13.29,0.028,284.0
2022-06-14T09:43:03,42.805,6.029,-0.01,-0.004,-0.008,104.0,105.0,103.0,13.3,1505.2,324.8,-0.8,1.8,2470.804,13.29,0.01,248.2
2022-06-14T09:46:03,42.805,6.029,-0.016,-0.019,-0.027,103.0,105.0,104.0,13.4,1505.2,328.1,-0.8,1.8,2470.761,13.29,0.024,220.1
2022-06-14T09:49:03,42.805,6.029,0.0,0.002,-0.017,104.0,104.0,101.0,13.4,1505.2,324.6,-0.8,1.8,2470.787,13.29,0.002,0.0
2022-06-14T09:52:03,42.805,6.029,-0.017,-0.012,-0.014,104.0,103.0,102.0,13.4,1505.2,322.7,-0.8,1.8,2470.744,13.29,0.02,234.8
2022-06-14T09:55:03,42.805,6.029,-0.013,-0.026,-0.029,105.0,103.0,101.0,13.3,1505.2,327.6,-0.7,1.8,2470.785,13.29,0.029,206.6
2022-06-14T09:58:03,42.805,6.029,-0.022,-0.001,-0.012,105.0,103.0,103.0,13.4,1505.2,325.9,-0.8,1.8,2470.737,13.29,0.022,267.4
2022-06-14T10:04:03,42.805,6.029,-0.017,0.016,-0.017,106.0,104.0,103.0,13.4,1505.2,326.9,-0.8,1.8,2470.822,13.28,0.023,313.3
2022-06-14T10:07:03,42.805,6.029,-0.018,-0.015,-0.028,104.0,104.0,103.0,13.4,1505.2,322.9,-0.8,1.8,2470.812,13.28,0.023,230.2
2022-06-14T10:10:03,42.805,6.029,-0.033,-0.007,-0.032,103.0,104.0,101.0,13.4,1505.2,326.5,-0.7,1.8,2470.806,13.28,0.033,258.0
2022-06-14T10:13:03,42.805,6.029,-0.034,0.001,-0.016,104.0,106.0,102.0,13.3,1505.2,321.4,-0.8,1.8,2470.736,13.28,0.034,271.7
2022-06-14T10:16:03,42.805,6.029,-0.024,0.004,-0.038,105.0,104.0,102.0,13.4,1505.2,331.1,-0.8,1.8,2470.783,13.29,0.024,279.5
2022-06-14T10:19:03,42.805,6.029,-0.038,0.026,0.001,105.0,102.0,102.0,13.4,1505.2,332.1,-0.8,1.8,2470.775,13.29,0.046,304.4
2022-06-14T10:22:03,42.805,6.029,-0.045,0.014,-0.024,105.0,104.0,102.0,13.4,1505.2,331.9,-0.8,1.8,2470.721,13.29,0.047,287.3
2022-06-14T10:25:03,42.805,6.029,-0.008,-0.005,-0.054,105.0,103.0,102.0,13.4,1505.2,331.3,-0.8,1.8,2470.739,13.29,0.009,238.0
2022-06-14T10:28:03,42.805,6.029,-0.011,0.008,-0.001,105.0,105.0,103.0,13.4,1505.2,326.1,-0.8,1.8,2470.776,13.29,0.013,306.0
2022-06-14T10:31:03,42.805,6.029,-0.018,0.007,-0.022,106.0,105.0,101.0,13.4,1505.2,329.1,-0.7,1.8,2470.778,13.29,0.019,291.2
2022-06-14T10:34:03,42.805,6.029,-0.015,0.001,-0.01,106.0,107.0,102.0,13.4,1505.2,323.3,-0.7,1.9,2470.735,13.29,0.015,273.8
2022-06-14T10:37:03,42.805,6.029,-0.035,0.016,0.004,106.0,104.0,102.0,13.4,1505.2,323.9,-0.8,1.8,2470.765,13.29,0.038,294.6
2022-06-14T10:40:03,42.805,6.029,-0.017,-0.007,-0.028,104.0,104.0,101.0,13.3,1505.2,323.7,-0.8,1.8,2470.732,13.29,0.018,247.6
2022-06-14T10:43:03,42.805,6.029,-0.022,-0.024,0.004,106.0,104.0,102.0,13.3,1505.2,323.4,-0.7,1.8,2470.77,13.29,0.032,222.5
2022-06-14T10:46:03,42.805,6.029,-0.004,-0.014,-0.013,104.0,104.0,103.0,13.4,1505.2,322.1,-0.8,1.8,2470.743,13.29,0.014,195.9
2022-06-14T10:49:03,42.805,6.029,-0.026,-0.003,0.003,106.0,103.0,102.0,13.4,1505.2,324.8,-0.8,1.8,2470.754,13.29,0.026,263.4
2022-06-14T10:52:03,42.805,6.029,-0.016,0.007,-0.003,105.0,105.0,101.0,13.4,1505.2,327.8,-0.8,1.8,2470.738,13.29,0.017,293.6